Location: Berlise
(49.6641°N, 4.1077°E)
Time: 03:17:53
(UTC+00:00)

Cosmos 2219 Rocket - Pass Details

Date: 27 January 2021
Orbit: 828 x 846 km, 71.0° (Epoch: 24 February)

Event Time Altitude Azimuth Distance (km) Brightness Sun altitude
Exits shadow 03:41:48 26° 27° (NNE) 1,599 3.9 -35.5°
Drops below altitude 10° 03:44:06 10° 28° (NNE) 2,445 5.0 -35.1°
Sets 03:46:33 0° 29° (NNE) 3,384 5.9 -34.8°
